EDT,Max TemperatureF,Mean TemperatureF,Min TemperatureF,Max Dew PointF,MeanDew PointF,Min DewpointF,Max Humidity, Mean Humidity, Min Humidity, Max Sea Level PressureIn, Mean Sea Level PressureIn, Min Sea Level PressureIn, Max VisibilityMiles, Mean VisibilityMiles, Min VisibilityMiles, Max Wind SpeedMPH, Mean Wind SpeedMPH, Max Gust SpeedMPH,PrecipitationIn, CloudCover, Events, WindDirDegrees
2013-3-1,63,56,49,47,40,33,89,55,32,30.00,29.96,29.92,10,10,10,13,9,20,0.00,5,,306
2013-3-2,59,50,42,39,33,25,69,51,27,30.04,30.00,29.94,10,10,10,25,13,32,0.00,3,,305
2013-3-3,55,46,38,32,30,28,73,56,37,30.17,30.05,29.99,10,10,10,21,12,30,0.00,1,,305
2013-3-4,59,46,33,41,33,25,89,63,32,30.24,30.19,30.15,10,10,10,15,6,21,0.00,0,,339
2013-3-5,76,58,39,57,45,38,99,68,28,30.22,30.12,30.02,10,10,9,14,5,17,0.00,0,,214
2013-3-6,68,59,49,61,42,23,95,59,18,30.13,30.01,29.95,10,10,10,23,12,31,0.00,3,Rain,283
2013-3-7,61,52,42,46,40,32,97,67,52,30.23,30.18,30.12,10,10,10,13,10,,0.00,0,,356
2013-3-8,66,54,41,51,46,41,99,72,45,30.24,30.20,30.16,10,10,10,14,6,,0.00,0,,8
2013-3-9,70,60,49,56,49,44,92,63,46,30.25,30.21,30.15,10,10,10,12,7,18,0.00,2,,35
2013-3-10,75,64,52,59,53,50,97,68,42,30.20,30.16,30.13,10,10,10,15,6,23,0.00,3,,106
2013-3-11,76,64,52,62,56,51,98,68,46,30.15,30.05,29.96,10,10,10,18,8,25,0.00,2,Rain,152
2013-3-12,72,66,60,69,64,59,100,89,75,30.03,29.95,29.90,10,10,6,14,10,20,0.25,6,Rain,215
2013-3-13,67,57,47,59,48,40,100,75,37,30.17,30.09,30.03,10,10,10,20,9,28,0.00,0,,342
2013-3-14,60,53,47,45,39,35,89,61,48,30.26,30.21,30.15,10,10,10,21,10,29,0.00,0,,354
2013-3-15,66,54,41,46,38,25,90,63,22,30.29,30.23,30.18,10,10,10,13,6,,0.00,0,,343
2013-3-16,78,59,41,56,44,38,100,76,25,30.21,30.15,30.06,10,7,1,13,4,,0.00,0,,228
2013-3-17,78,61,44,60,52,44,100,71,43,30.18,30.12,30.04,10,6,1,13,5,18,0.00,2,,213
2013-3-18,79,71,64,66,62,59,88,73,55,30.08,30.01,29.93,10,8,2,14,7,20,0.00,5,Rain,200
2013-3-19,86,74,62,65,63,57,100,81,39,30.03,29.96,29.90,10,9,2,14,5,,0.00,3,,46
2013-3-20,74,66,58,68,63,57,100,91,75,29.98,29.89,29.81,10,9,2,22,7,31,0.58,6,Rain-Thunderstorm,23
2013-3-21,66,56,49,57,47,36,100,75,37,29.96,29.91,29.87,10,10,10,14,9,18,0.00,0,,333
2013-3-22,75,70,64,63,56,44,94,68,37,30.03,29.99,29.93,10,10,9,14,7,17,0.04,5,Rain,133
2013-3-23,86,74,64,72,68,63,100,87,61,29.99,29.89,29.76,10,10,8,14,6,20,0.02,6,Rain-Thunderstorm,162
2013-3-24,84,74,64,72,68,61,100,87,59,29.86,29.72,29.65,10,8,0,36,11,60,0.75,6,Rain-Thunderstorm,222
2013-3-25,73,65,55,69,47,30,100,58,21,30.02,29.85,29.72,10,10,9,18,10,22,0.00,1,,294
2013-3-26,61,54,46,37,28,19,62,37,20,30.23,30.12,30.02,10,6,2,20,13,28,0.00,1,,307
2013-3-27,59,50,41,39,35,31,90,59,42,30.30,30.25,30.21,10,9,6,13,8,,0.00,0,,347
2013-3-28,65,52,40,44,40,34,97,67,32,30.30,30.26,30.22,10,8,4,13,6,17,0.00,0,,342
2013-3-29,70,57,45,52,42,32,99,64,25,30.34,30.28,30.24,10,10,10,12,5,,0.00,0,,24
2013-3-30,75,58,42,56,48,43,100,74,36,30.28,30.22,30.15,10,9,0,14,4,20,0.00,0,Fog,211
2013-3-31,81,68,57,65,57,52,91,67,38,30.19,30.11,30.02,10,10,10,18,9,24,0.00,3,,194